TimeCDT,TemperatureF,Dew PointF,Humidity,Sea Level PressureIn,VisibilityMPH,Wind Direction,Wind SpeedMPH,Gust SpeedMPH,PrecipitationIn,Events,Conditions,WindDirDegrees,DateUTC
1:55 AM,37.4,37.4,100,29.72,10.0,NNW,27.6,40.3,N/A,,Overcast,340,2012-10-19 06:55:00
2:15 AM,37.4,37.4,100,29.73,10.0,North,29.9,36.8,N/A,,Overcast,350,2012-10-19 07:15:00
2:35 AM,37.4,37.4,100,29.74,10.0,North,26.5,36.8,N/A,,Overcast,350,2012-10-19 07:35:00
2:55 AM,37.4,37.4,100,29.74,10.0,North,28.8,36.8,N/A,,Overcast,350,2012-10-19 07:55:00
3:15 AM,37.4,37.4,100,29.75,10.0,North,28.8,38.0,N/A,,Overcast,350,2012-10-19 08:15:00
3:35 AM,37.4,37.4,100,29.75,10.0,North,27.6,34.5,N/A,,Overcast,350,2012-10-19 08:35:00
3:55 AM,37.4,37.4,100,29.75,9.0,NNW,24.2,38.0,N/A,,Overcast,340,2012-10-19 08:55:00
4:15 AM,37.4,37.4,100,29.75,10.0,North,25.3,34.5,N/A,,Overcast,350,2012-10-19 09:15:00
4:35 AM,37.4,37.4,100,29.75,10.0,North,26.5,34.5,N/A,,Overcast,350,2012-10-19 09:35:00
4:55 AM,37.4,37.4,100,29.75,10.0,North,27.6,38.0,N/A,,Overcast,350,2012-10-19 09:55:00
5:15 AM,39.2,39.2,100,29.76,10.0,NNW,21.9,29.9,N/A,,Overcast,340,2012-10-19 10:15:00
5:35 AM,39.2,39.2,100,29.76,10.0,NNW,24.2,31.1,N/A,,Overcast,340,2012-10-19 10:35:00
5:55 AM,39.2,39.2,100,29.77,10.0,NNW,21.9,32.2,N/A,,Overcast,340,2012-10-19 10:55:00
6:15 AM,37.4,37.4,100,29.77,10.0,NNW,23.0,33.4,N/A,,Overcast,340,2012-10-19 11:15:00
6:35 AM,37.4,37.4,100,29.77,10.0,NNW,24.2,31.1,N/A,,Overcast,340,2012-10-19 11:35:00
6:55 AM,37.4,37.4,100,29.76,10.0,North,23.0,32.2,N/A,,Overcast,350,2012-10-19 11:55:00
7:15 AM,37.4,37.4,100,29.76,10.0,NNW,23.0,33.4,N/A,,Overcast,340,2012-10-19 12:15:00
7:55 AM,37.4,37.4,100,29.77,9.0,NNW,20.7,27.6,N/A,,Overcast,340,2012-10-19 12:55:00
8:15 AM,37.4,37.4,100,29.78,10.0,NNW,23.0,28.8,N/A,,Overcast,340,2012-10-19 13:15:00
8:35 AM,37.4,37.4,100,29.78,10.0,NNW,23.0,27.6,N/A,,Overcast,340,2012-10-19 13:35:00
8:55 AM,37.4,37.4,100,29.78,10.0,NNW,23.0,28.8,N/A,,Overcast,340,2012-10-19 13:55:00
9:15 AM,37.4,37.4,100,29.78,10.0,NNW,21.9,29.9,N/A,,Overcast,340,2012-10-19 14:15:00
9:35 AM,37.4,37.4,100,29.77,10.0,North,19.6,25.3,N/A,,Overcast,350,2012-10-19 14:35:00
9:55 AM,37.4,37.4,100,29.78,10.0,NNW,24.2,28.8,N/A,,Overcast,340,2012-10-19 14:55:00
10:15 AM,37.4,37.4,100,29.78,10.0,North,19.6,28.8,N/A,,Overcast,350,2012-10-19 15:15:00
10:35 AM,37.4,37.4,100,29.78,10.0,NNW,21.9,-,N/A,,Overcast,340,2012-10-19 15:35:00
10:55 AM,39.2,39.2,100,29.79,10.0,NNW,19.6,24.2,N/A,,Overcast,340,2012-10-19 15:55:00
11:15 AM,39.2,39.2,100,29.79,10.0,NNW,20.7,26.5,N/A,,Overcast,340,2012-10-19 16:15:00
11:35 AM,39.2,39.2,100,29.79,10.0,North,18.4,24.2,N/A,,Overcast,350,2012-10-19 16:35:00
11:55 AM,39.2,39.2,100,29.79,10.0,North,19.6,-,N/A,,Overcast,350,2012-10-19 16:55:00
12:15 PM,39.2,39.2,100,29.79,10.0,NNW,18.4,-,N/A,,Overcast,340,2012-10-19 17:15:00
12:35 PM,39.2,39.2,100,29.79,10.0,North,17.3,-,N/A,,Overcast,350,2012-10-19 17:35:00
12:55 PM,39.2,39.2,100,29.78,10.0,NNW,19.6,-,N/A,,Overcast,340,2012-10-19 17:55:00
1:15 PM,39.2,39.2,100,29.77,10.0,NNW,18.4,-,N/A,,Overcast,340,2012-10-19 18:15:00
1:35 PM,39.2,39.2,100,29.76,10.0,North,17.3,23.0,N/A,,Overcast,350,2012-10-19 18:35:00
1:55 PM,39.2,39.2,100,29.76,10.0,NNW,18.4,-,N/A,,Overcast,340,2012-10-19 18:55:00
2:15 PM,39.2,39.2,100,29.75,10.0,North,13.8,20.7,N/A,,Overcast,350,2012-10-19 19:15:00
2:35 PM,41.0,41.0,100,29.74,10.0,North,15.0,-,N/A,,Overcast,350,2012-10-19 19:35:00
2:55 PM,41.0,39.2,93,29.75,10.0,North,16.1,-,N/A,,Overcast,360,2012-10-19 19:55:00
3:15 PM,41.0,39.2,93,29.74,10.0,NNW,17.3,-,N/A,,Overcast,340,2012-10-19 20:15:00
3:35 PM,41.0,41.0,100,29.74,10.0,North,13.8,-,N/A,,Overcast,350,2012-10-19 20:35:00
3:55 PM,39.2,39.2,100,29.75,5.0,NNW,12.7,-,N/A,,Overcast,340,2012-10-19 20:55:00
4:15 PM,41.0,41.0,100,29.75,10.0,North,12.7,-,N/A,,Overcast,350,2012-10-19 21:15:00
4:35 PM,41.0,41.0,100,29.75,10.0,North,12.7,-,N/A,,Overcast,360,2012-10-19 21:35:00
4:55 PM,41.0,41.0,100,29.74,10.0,North,10.4,-,N/A,,Overcast,350,2012-10-19 21:55:00
5:15 PM,39.2,39.2,100,29.74,8.0,North,12.7,-,N/A,,Overcast,350,2012-10-19 22:15:00
5:35 PM,41.0,41.0,100,29.74,10.0,North,9.2,-,N/A,,Overcast,360,2012-10-19 22:35:00
5:55 PM,41.0,41.0,100,29.74,10.0,NNW,9.2,-,N/A,,Overcast,340,2012-10-19 22:55:00
6:15 PM,39.2,39.2,100,29.74,10.0,North,6.9,-,N/A,,Overcast,350,2012-10-19 23:15:00
6:35 PM,39.2,39.2,100,29.75,10.0,NNW,6.9,-,N/A,,Overcast,340,2012-10-19 23:35:00
6:55 PM,39.2,39.2,100,29.74,10.0,North,5.8,-,N/A,,Overcast,350,2012-10-19 23:55:00
7:15 PM,39.2,39.2,100,29.74,10.0,North,3.5,-,N/A,,Overcast,10,2012-10-20 00:15:00
7:35 PM,39.2,39.2,100,29.72,10.0,NE,5.8,-,N/A,,Overcast,40,2012-10-20 00:35:00
7:55 PM,39.2,39.2,100,29.73,9.0,North,3.5,-,N/A,,Overcast,10,2012-10-20 00:55:00
8:15 PM,39.2,39.2,100,29.74,9.0,NW,4.6,-,N/A,,Overcast,310,2012-10-20 01:15:00
8:35 PM,39.2,39.2,100,29.74,3.0,NNW,3.5,-,N/A,,Overcast,330,2012-10-20 01:35:00
8:55 PM,39.2,39.2,100,29.73,2.0,Calm,Calm,-,N/A,,Overcast,0,2012-10-20 01:55:00
9:15 PM,39.2,39.2,100,29.73,1.8,Calm,Calm,-,N/A,,Overcast,0,2012-10-20 02:15:00
9:35 PM,39.2,39.2,100,29.73,2.0,Calm,Calm,-,N/A,,Overcast,0,2012-10-20 02:35:00
9:55 PM,39.2,39.2,100,29.74,1.2,WSW,3.5,-,N/A,,Overcast,240,2012-10-20 02:55:00
10:15 PM,39.2,39.2,100,29.74,1.5,WSW,3.5,-,N/A,,Overcast,250,2012-10-20 03:15:00
10:35 PM,39.2,39.2,100,29.72,1.8,Calm,Calm,-,N/A,,Overcast,0,2012-10-20 03:35:00
10:55 PM,39.2,39.2,100,29.72,5.0,SSW,3.5,-,N/A,,Overcast,210,2012-10-20 03:55:00
11:35 PM,39.2,39.2,100,29.72,10.0,WSW,4.6,-,N/A,,Overcast,240,2012-10-20 04:35:00
11:55 PM,39.2,39.2,100,29.71,10.0,SSW,3.5,-,N/A,,Overcast,210,2012-10-20 04:55:00